User: anonymous   Login
Location: Unspecified
(0.0000°N, 0.0000°E)
Time: 00:02:53
(UTC+00:00)
Language:

STARLINK-35569 - Orbit

View from above orbital plane
View from above orbital plane
View from above satellite
View from above satellite

Ground track
Ground track

The orbit is defined by the following mean orbital elements,

1 66471U          26145.62352303 +.00000000 +00000-0 +52216-3 0 00008
2 66471  42.9991 221.5810 0001451 268.9049  91.1637 15.27592466    02
Epoch (UTC): 25 May 2026 14:57:52
Eccentricity: 0.0001451
inclination: 42.9991°
perigee height: 482 km
apogee height: 484 km
right ascension of ascending node: 221.5810°
argument of perigee: 268.9049°
revolutions per day: 15.27592466
mean anomaly at epoch: 91.1637°

The dashed part of the orbit path shows where the satellite is in the earth's shadow,  

DLR